リニア彗星

C/1998 M2 ( LINEAR )

English version
Home page
Updated on September 27, 1999

---------------------------------------------------------------------

・ プロフィール

発見日 1998年6月19日
発見光度 16.9等
発見者 Lincoln Laboratory Near-Earth Asteroid Research project

・ 写真集

・ 軌道要素

   The following improved orbital elements by Kenji Muraoka, are 
  from 357 observations 1998 May 28 to 1999 Aug. 12, perturbations
  by 9 Planets, Moon and 5 minor planets were taken into account.
   The mean residual is +/- 0.62 arc seconds.

      Epoch  =  1998 Aug. 15.0  TT       JDT = 2451040.5
          T  =  1998 Aug. 13.17111       +/- 0.00055 (m.e.) TT
       Peri. =   37.24261                +/- 0.00017
       Node  =  260.88023                +/- 0.00011   (2000.0)
       Incl. =   60.18235                +/- 0.00005
          q  =    2.7253289              +/- 0.0000036 AU
          e  =    0.9977532              +/- 0.0000053
        1/a  =   +0.0008244              +/- 0.0000020 1/AU
        ( P  =  42246 years )
  orig. 1/a  =   +0.001223 
  fut.  1/a  =   +0.001871 

・ 星図

・ 光度変化

        m1 = 8.0 + 5 logΔ + 10.0 log r

---------------------------------------------------------------------

軌道要素は村岡健治氏の計算によるものです。
星図は StellaNavigator Ver.2.0 for Windows (アストロアーツ 編著 / アスキー出版局刊) で作成したものです。
光度グラフはComet for Windowsで作成したものです。

---------------------------------------------------------------------

Copyright(C) Seiichi Yoshida (comet@aerith.net). All rights reserved.